Wind_Speed
24 26 27 28 29 30 32 33 33 34 35 36 37 39 40 41 42 43 43 44 45 46 46 47 48 48 49 50 50 50 51 51 52 51 52 52 52 53 54 54 54 54 54
23 26 28 28 30 30 31 33 34 35 36 37 38 39 41 42 43 44 44 45 46 46 47 48 48 49 49 49 50 51 51 52 52 52 52 52 53 53 53 54 54 55 55
24 25 27 28 30 31 32 33 34 36 37 39 40 41 42 42 43 44 44 45 45 46 47 47 48 49 50 50 51 51 52 52 52 52 52 52 53 53 53 54 54 55 55
26 27 28 29 31 32 34 35 36 37 38 38 39 41 43 43 43 44 44 44 44 45 46 47 48 48 49 50 51 51 52 53 53 52 52 52 52 53 54 54 53 54 55
27 28 30 31 33 34 35 36 38 38 39 40 40 41 41 42 43 44 44 44 44 45 46 47 48 49 49 50 51 51 51 52 53 52 52 52 52 53 53 53 54 54 54
28 29 31 32 33 34 35 36 37 38 39 39 40 40 41 42 43 44 45 45 45 46 47 47 48 49 49 50 50 50 51 52 52 52 52 52 52 53 53 53 53 53 53
29 31 32 32 33 34 35 36 36 37 38 39 39 39 39 40 41 42 43 44 45 45 46 48 48 49 49 48 49 50 50 50 51 52 52 52 52 52 53 53 53 52 52
30 30 32 33 34 34 34 35 36 37 37 38 38 39 40 40 42 42 44 44 45 46 46 47 48 48 48 48 49 49 49 50 50 50 51 51 51 52 53 53 52 52 52
31 32 32 32 33 33 33 34 36 36 37 39 40 40 40 41 42 43 45 45 46 46 45 45 46 46 47 47 48 49 49 50 50 50 50 50 51 51 52 52 52 51 51
32 32 33 33 33 33 35 36 37 37 38 39 40 40 41 41 42 43 44 44 44 44 44 44 45 45 45 46 47 47 48 48 48 48 48 49 50 50 50 51 51 51 51
33 34 33 34 34 35 36 37 38 38 38 39 40 40 41 41 42 42 43 43 44 44 44 45 45 45 46 45 45 46 46 47 47 48 48 49 49 50 50 50 51 50 49
35 35 35 35 36 37 37 38 38 39 39 39 40 40 41 41 41 42 42 43 44 44 44 45 45 45 45 45 45 45 46 46 46 47 47 48 49 49 49 49 48 48 47
36 36 37 37 38 38 39 39 39 39 39 39 39 39 40 41 41 42 43 43 43 44 44 44 44 44 44 44 44 45 45 46 46 46 47 47 48 48 48 47 46 45 45
37 37 38 38 39 39 40 40 40 40 40 40 40 40 41 41 41 42 43 43 43 43 43 42 42 42 43 43 44 45 46 46 46 46 46 46 46 46 45 45 44 44 44
38 39 39 40 40 40 40 40 40 41 41 41 41 42 42 42 42 42 42 42 42 42 41 41 41 42 42 42 43 44 44 44 44 44 44 44 44 43 43 43 43 43 42
39 40 40 41 41 41 41 40 40 41 41 41 41 41 41 41 41 41 41 41 41 41 41 41 41 41 42 42 42 42 42 42 42 42 42 41 41 41 41 41 41 41 40
41 41 41 42 42 42 41 41 40 41 41 41 40 40 41 40 40 40 41 41 42 42 41 41 41 41 41 41 41 40 40 40 40 39 39 38 38 39 39 38 38 38 38
43 43 43 43 43 42 41 41 41 41 40 40 40 40 40 40 39 39 40 40 40 41 40 40 40 40 40 39 39 38 37 37 37 37 36 36 36 36 36 36 37 38 38
44 44 43 43 42 42 42 41 41 41 41 40 39 39 39 40 40 39 39 40 40 39 39 40 39 39 39 38 37 36 36 36 36 35 35 35 35 35 35 36 36 37 38
44 44 43 43 42 42 42 42 42 41 41 40 39 39 39 39 39 39 39 39 38 38 38 39 38 38 37 36 36 36 35 35 34 34 34 34 34 35 35 36 36 36 36
45 44 43 42 42 42 41 41 41 41 40 39 38 38 38 38 37 37 37 36 36 37 37 36 35 35 35 35 35 34 34 34 34 33 33 34 34 34 35 35 35 34 34
44 43 42 42 41 41 40 40 40 39 39 38 37 37 37 36 36 35 34 34 34 34 34 33 33 33 33 33 33 32 32 33 32 32 32 33 33 34 34 34 34 33 33
42 41 41 40 40 40 39 39 39 38 38 37 37 36 35 34 34 33 33 32 32 32 31 31 31 31 31 31 31 31 31 31 31 31 31 32 33 32 32 32 32 31 30
41 40 40 39 39 39 38 38 38 38 37 37 35 35 34 33 32 32 32 32 32 32 31 31 31 30 30 31 31 31 31 31 31 31 31 31 31 31 31 30 30 29 28
39 39 39 39 38 38 38 37 37 36 36 35 34 33 32 32 32 32 32 31 31 31 31 31 31 31 30 30 31 31 31 30 30 29 29 30 30 30 29 29 28 27 26
37 37 37 37 37 37 36 35 35 34 33 33 33 32 32 32 32 31 31 31 31 31 31 31 30 30 30 30 30 29 29 28 28 27 28 27 27 26 26 26 25 24 23
Wind_Direction
262 261 261 259 259 261 262 263 263 264 265 264 264 264 265 266 265 266 268 269 270 270 269 270 271 272 273 274 275 275 276 278 279 279 280 281 280 281 281 282 282 281 281
267 265 264 265 265 265 266 266 266 266 266 266 265 266 267 267 267 267 268 270 271 271 271 271 272 272 273 274 275 276 277 278 279 280 280 281 281 281 281 282 282 282 283
271 271 270 270 268 268 269 270 270 268 267 268 267 267 268 269 269 269 270 272 272 272 272 273 273 274 274 275 276 277 278 279 280 281 280 281 281 281 282 282 284 284 284
275 274 273 272 272 272 271 270 271 270 270 269 270 270 271 270 270 270 271 272 273 273 274 274 275 275 276 276 277 278 279 280 280 281 281 281 281 282 282 283 283 284 283
278 276 275 274 274 273 272 271 271 271 271 272 272 273 272 271 272 272 273 274 275 276 276 276 276 277 277 277 277 278 279 280 280 281 281 281 282 283 283 283 283 283 283
280 280 278 277 277 276 276 276 275 274 274 275 275 274 273 273 274 274 275 275 277 278 278 278 278 278 278 278 278 279 280 280 281 282 281 282 283 283 283 283 284 283 283
283 282 282 282 281 280 279 278 278 279 278 277 276 275 275 275 276 276 277 278 279 279 280 280 279 279 279 279 279 280 281 282 283 283 282 283 283 284 284 284 284 284 283
283 283 284 284 284 282 281 281 281 280 278 277 275 276 276 276 277 278 278 279 280 280 281 282 280 280 279 279 279 280 281 282 284 284 284 284 283 284 284 284 285 284 283
285 284 285 285 284 283 283 283 283 282 280 279 277 277 277 277 278 279 280 280 281 282 282 282 282 282 281 281 281 281 282 282 283 284 284 284 284 284 285 284 284 284 283
287 287 286 286 285 285 285 285 285 285 282 281 280 279 279 278 279 280 282 282 282 282 282 283 283 283 282 282 283 283 283 282 282 282 283 284 285 286 286 286 285 285 284
288 288 287 287 286 287 287 287 287 286 285 283 281 280 280 280 281 281 282 284 284 283 283 284 284 283 283 283 284 284 284 283 283 283 283 285 286 286 286 286 285 286 286
289 287 287 287 287 288 288 288 287 286 285 284 283 282 282 282 282 282 283 285 285 285 284 285 285 284 284 285 284 285 285 285 284 284 285 286 286 286 285 285 286 286 286
288 287 287 287 287 288 289 289 288 287 286 285 284 284 284 284 284 284 285 286 286 287 287 286 286 286 284 284 284 284 285 285 285 285 286 286 286 286 285 285 285 286 286
288 287 287 288 288 288 289 289 288 287 286 285 285 285 285 285 285 285 285 285 286 287 288 288 288 288 287 287 286 285 285 285 285 286 286 286 286 286 286 285 285 286 286
288 287 287 288 288 288 288 288 287 287 286 285 285 285 286 285 286 286 286 286 286 287 288 288 288 288 288 287 287 287 286 285 286 286 286 285 286 286 286 285 285 286 286
288 288 287 288 288 287 287 287 286 286 285 285 285 285 286 286 286 286 285 286 287 287 288 289 290 289 288 287 288 288 288 287 287 287 286 286 286 286 286 286 286 286 286
289 289 288 288 288 288 287 287 287 286 285 285 285 285 285 285 285 285 285 286 287 288 289 290 290 289 289 289 289 289 289 288 288 288 288 287 286 287 287 286 286 287 288
289 289 288 288 288 287 287 286 287 287 286 285 285 285 285 285 284 285 286 287 287 288 288 289 288 289 289 289 289 289 289 289 289 289 288 288 287 288 288 288 288 289 290
289 288 288 288 288 287 286 286 287 287 287 286 285 285 285 284 284 286 287 288 288 288 288 288 288 288 289 288 289 289 289 290 289 289 288 288 289 289 290 290 290 291 292
290 289 288 288 288 287 287 287 287 287 288 287 286 285 285 285 285 286 287 288 288 288 288 288 288 288 287 288 289 289 289 290 289 288 289 289 289 290 290 290 291 292 292
289 288 288 288 288 287 287 288 287 287 288 287 287 286 285 286 286 287 287 288 289 289 289 288 288 287 287 288 288 288 289 289 289 288 289 290 290 291 292 291 292 292 293
289 288 288 288 288 288 288 288 288 288 287 287 287 286 286 286 287 288 288 289 289 290 289 289 289 288 289 289 289 288 288 288 288 288 290 290 290 292 292 292 293 293 293
289 288 288 288 288 289 288 288 289 288 288 287 287 286 285 286 286 287 288 288 289 289 289 290 290 290 290 291 291 290 289 288 289 289 290 291 292 293 293 293 294 294 293
288 288 287 287 287 288 288 288 288 288 288 287 285 285 285 286 286 287 288 288 288 289 289 289 289 290 290 291 291 290 289 288 289 290 291 292 292 292 294 295 295 294 293
288 288 287 286 286 286 287 287 288 288 288 286 284 284 284 285 287 288 288 288 288 288 289 289 289 289 290 290 290 290 289 289 289 291 292 292 293 293 294 295 295 294 293
289 289 288 287 286 286 286 286 286 286 286 285 285 284 284 285 286 286 287 287 287 287 288 289 289 288 289 289 289 289 289 290 290 291 292 294 294 295 296 296 295 294 294
Height
5667 5668 5670 5671 5673 5674 5675 5676 5677 5678 5679 5680 5681 5681 5681 5682 5682 5682 5682 5682 5682 5682 5682 5682 5682 5681 5681 5680 5679 5678 5678 5676 5676 5676 5674 5673 5670 5668 5667 5664 5662 5660 5658
5661 5662 5663 5664 5665 5666 5667 5668 5669 5669 5670 5670 5670 5671 5670 5671 5670 5670 5670 5670 5670 5669 5669 5669 5668 5667 5667 5667 5666 5665 5664 5662 5661 5661 5660 5658 5656 5654 5652 5650 5647 5645 5642
5654 5655 5656 5657 5658 5658 5659 5659 5659 5660 5660 5660 5660 5659 5659 5658 5658 5658 5658 5658 5657 5657 5656 5655 5655 5654 5653 5653 5651 5650 5649 5647 5646 5645 5645 5643 5641 5639 5637 5635 5632 5630 5627
5648 5648 5648 5649 5649 5649 5649 5649 5649 5649 5649 5649 5648 5648 5647 5646 5646 5645 5645 5645 5644 5643 5642 5641 5640 5639 5639 5638 5637 5636 5634 5633 5631 5630 5629 5628 5626 5624 5622 5620 5618 5614 5612
5641 5641 5641 5640 5640 5640 5639 5639 5639 5638 5638 5637 5636 5636 5635 5634 5633 5633 5632 5632 5631 5630 5629 5628 5626 5625 5624 5623 5622 5621 5619 5617 5616 5615 5613 5612 5610 5608 5607 5604 5602 5600 5597
5633 5633 5632 5631 5630 5630 5629 5628 5628 5627 5626 5625 5625 5624 5623 5622 5621 5620 5619 5619 5618 5617 5615 5614 5612 5611 5609 5608 5607 5606 5604 5602 5601 5599 5598 5596 5595 5593 5591 5589 5586 5585 5582
5625 5624 5623 5622 5621 5620 5618 5618 5617 5616 5615 5614 5613 5612 5611 5610 5609 5608 5607 5606 5605 5603 5601 5600 5598 5596 5595 5593 5592 5591 5589 5587 5586 5584 5583 5581 5579 5578 5576 5574 5571 5569 5566
5617 5616 5614 5613 5611 5610 5609 5607 5606 5605 5604 5603 5602 5601 5600 5598 5597 5595 5594 5593 5592 5590 5588 5585 5584 5582 5580 5579 5578 5577 5575 5573 5571 5569 5568 5566 5564 5561 5559 5557 5555 5553 5551
5608 5607 5605 5603 5602 5600 5599 5597 5596 5594 5593 5591 5590 5589 5588 5586 5585 5583 5581 5580 5579 5577 5574 5572 5570 5568 5567 5565 5564 5563 5561 5558 5556 5554 5552 5550 5548 5546 5543 5541 5539 5537 5536
5600 5597 5595 5594 5592 5591 5589 5587 5585 5583 5581 5580 5579 5577 5576 5574 5572 5571 5569 5567 5566 5564 5562 5559 5557 5555 5553 5551 5550 5548 5546 5544 5542 5540 5538 5536 5533 5531 5528 5526 5524 5522 5520
5590 5588 5586 5584 5582 5581 5578 5576 5574 5572 5570 5569 5567 5565 5564 5562 5560 5558 5556 5554 5552 5551 5549 5547 5544 5542 5540 5538 5536 5534 5532 5530 5528 5527 5524 5522 5519 5516 5514 5511 5509 5507 5504
5581 5579 5577 5575 5573 5570 5568 5566 5563 5561 5559 5557 5555 5553 5551 5549 5547 5545 5543 5541 5539 5537 5535 5533 5531 5529 5527 5525 5522 5520 5518 5516 5514 5512 5510 5508 5505 5502 5500 5497 5495 5492 5490
5572 5569 5567 5565 5562 5560 5557 5555 5552 5549 5547 5545 5543 5541 5540 5538 5535 5533 5531 5528 5526 5524 5522 5520 5517 5515 5514 5511 5509 5507 5505 5502 5500 5498 5496 5494 5491 5489 5486 5484 5481 5478 5476
5562 5559 5557 5555 5552 5549 5546 5543 5541 5538 5535 5533 5531 5529 5528 5526 5524 5521 5518 5516 5514 5512 5510 5507 5505 5503 5501 5498 5496 5494 5491 5489 5486 5484 5482 5480 5477 5475 5472 5470 5468 5466 5464
5551 5548 5546 5543 5540 5538 5535 5532 5529 5527 5523 5521 5519 5517 5515 5513 5511 5508 5506 5504 5502 5500 5497 5495 5493 5491 5488 5486 5483 5480 5478 5475 5473 5471 5469 5467 5464 5462 5459 5457 5455 5453 5451
5540 5537 5534 5531 5528 5526 5523 5521 5517 5515 5512 5509 5506 5504 5502 5500 5498 5496 5494 5492 5490 5488 5486 5484 5481 5478 5476 5473 5471 5468 5465 5463 5460 5458 5456 5454 5452 5450 5447 5445 5443 5441 5439
5527 5525 5522 5519 5516 5513 5511 5508 5506 5503 5500 5497 5494 5492 5490 5488 5486 5484 5482 5480 5478 5476 5474 5472 5469 5467 5464 5461 5459 5456 5454 5451 5449 5446 5444 5442 5440 5438 5436 5434 5432 5430 5427
5515 5512 5509 5506 5504 5501 5498 5495 5493 5490 5488 5486 5483 5480 5478 5476 5474 5472 5470 5468 5466 5464 5462 5459 5457 5455 5452 5450 5448 5445 5443 5440 5438 5436 5433 5431 5429 5427 5425 5423 5421 5419 5416
5502 5499 5496 5493 5491 5488 5485 5483 5480 5478 5476 5474 5471 5469 5466 5464 5462 5460 5458 5456 5454 5452 5450 5447 5445 5443 5441 5439 5436 5434 5432 5430 5427 5425 5423 5421 5419 5417 5415 5413 5410 5408 5405
5488 5485 5483 5480 5478 5475 5473 5470 5468 5465 5463 5461 5459 5457 5455 5453 5451 5449 5446 5444 5442 5440 5438 5436 5434 5431 5429 5428 5426 5424 5422 5420 5417 5415 5413 5411 5409 5407 5405 5402 5400 5397 5394
5475 5473 5470 5467 5465 5463 5460 5458 5455 5453 5451 5449 5447 5445 5443 5441 5439 5437 5435 5433 5431 5429 5427 5425 5423 5421 5419 5417 5415 5413 5411 5409 5407 5405 5403 5401 5399 5397 5394 5392 5389 5387 5384
5462 5460 5457 5455 5453 5450 5448 5445 5443 5441 5439 5437 5435 5433 5431 5429 5428 5426 5424 5422 5420 5418 5416 5414 5413 5411 5409 5407 5405 5403 5401 5399 5397 5395 5393 5391 5389 5387 5384 5381 5379 5376 5374
5449 5447 5445 5443 5440 5438 5436 5433 5431 5429 5427 5425 5423 5422 5420 5418 5417 5415 5413 5412 5410 5408 5406 5405 5403 5401 5399 5397 5395 5394 5392 5390 5388 5386 5384 5382 5379 5377 5374 5372 5369 5367 5364
5437 5434 5432 5430 5428 5426 5424 5421 5419 5417 5415 5413 5412 5410 5409 5408 5406 5405 5403 5402 5400 5399 5397 5395 5394 5392 5390 5388 5386 5384 5382 5380 5378 5376 5374 5372 5370 5367 5365 5362 5360 5358 5355
5424 5422 5420 5417 5415 5413 5411 5409 5407 5405 5403 5402 5401 5400 5398 5397 5396 5395 5393 5392 5390 5389 5387 5385 5384 5382 5380 5378 5376 5375 5373 5371 5369 5367 5365 5362 5360 5358 5356 5353 5351 5349 5347
5412 5410 5407 5405 5403 5401 5400 5398 5396 5394 5393 5391 5390 5389 5388 5387 5386 5384 5383 5382 5380 5379 5377 5376 5374 5372 5371 5369 5367 5365 5363 5361 5359 5358 5356 5354 5351 5349 5347 5345 5343 5341 5340